Time,TemperatureF,DewpointF,PressureIn,WindDirection,WindDirectionDegrees,WindSpeedMPH,WindSpeedGustMPH,Humidity,HourlyPrecipIn,Conditions,Clouds,dailyrainin,SoftwareType,DateUTC
2013-05-26 00:00:00,75.0,68.9,30.07,SW,225,2.2,2.2,81,0.00,,,0.00,WUHU216EASYWX,2013-05-26 05:00:00,
2013-05-26 00:05:00,75.0,68.9,30.08,South,180,3.8,3.8,81,0.00,,,0.00,WUHU216EASYWX,2013-05-26 05:05:00,
2013-05-26 00:10:00,74.7,68.5,30.07,South,180,2.2,2.2,81,0.00,,,0.00,WUHU216EASYWX,2013-05-26 05:10:00,
2013-05-26 00:15:00,76.6,70.7,30.08,SE,135,2.2,2.2,82,0.00,,,0.00,WUHU216EASYWX,2013-05-26 05:15:00,
2013-05-26 00:20:00,74.7,68.9,30.07,SW,225,2.2,2.2,82,0.00,,,0.00,WUHU216EASYWX,2013-05-26 05:20:00,
2013-05-26 00:25:00,74.7,68.9,30.07,SW,225,3.1,3.1,82,0.00,,,0.00,WUHU216EASYWX,2013-05-26 05:25:00,
2013-05-26 00:30:00,74.5,68.7,30.07,South,180,2.2,2.2,82,0.00,,,0.00,WUHU216EASYWX,2013-05-26 05:30:00,
2013-05-26 00:35:00,74.3,68.9,30.06,South,180,2.2,2.2,83,0.00,,,0.00,WUHU216EASYWX,2013-05-26 05:35:00,
2013-05-26 00:40:00,74.1,68.7,30.06,SW,225,0.7,0.7,83,0.00,,,0.00,WUHU216EASYWX,2013-05-26 05:40:00,
2013-05-26 00:45:00,73.9,68.5,30.06,South,180,1.6,1.6,83,0.00,,,0.00,WUHU216EASYWX,2013-05-26 05:45:00,
2013-05-26 00:50:00,73.9,68.9,30.06,South,180,2.2,2.2,84,0.00,,,0.00,WUHU216EASYWX,2013-05-26 05:50:00,
2013-05-26 00:55:00,73.8,68.7,30.06,South,180,2.2,2.2,84,0.00,,,0.00,WUHU216EASYWX,2013-05-26 05:55:00,
2013-05-26 01:01:00,73.6,68.5,30.06,South,180,1.6,1.6,84,0.00,,,0.00,WUHU216EASYWX,2013-05-26 06:01:00,
2013-05-26 01:06:00,73.6,68.5,30.06,South,180,1.6,1.6,84,0.00,,,0.00,WUHU216EASYWX,2013-05-26 06:06:00,
2013-05-26 01:11:00,73.4,68.4,30.06,South,180,1.6,1.6,84,0.00,,,0.00,WUHU216EASYWX,2013-05-26 06:11:00,
2013-05-26 01:16:00,73.2,68.5,30.06,SE,135,1.6,1.6,85,0.00,,,0.00,WUHU216EASYWX,2013-05-26 06:16:00,
2013-05-26 01:21:00,73.2,68.5,30.06,SW,225,0.7,0.7,85,0.00,,,0.00,WUHU216EASYWX,2013-05-26 06:21:00,
2013-05-26 01:26:00,73.0,68.4,30.06,South,180,1.6,1.6,85,0.00,,,0.00,WUHU216EASYWX,2013-05-26 06:26:00,
2013-05-26 01:31:00,72.9,68.2,30.06,South,180,0.7,0.7,85,0.00,,,0.00,WUHU216EASYWX,2013-05-26 06:31:00,
2013-05-26 01:36:00,72.9,68.2,30.06,SE,135,1.6,1.6,85,0.00,,,0.00,WUHU216EASYWX,2013-05-26 06:36:00,
2013-05-26 01:41:00,72.9,68.5,30.06,SW,225,2.2,2.2,86,0.00,,,0.00,WUHU216EASYWX,2013-05-26 06:41:00,
2013-05-26 01:46:00,72.7,68.4,30.06,SW,225,1.6,1.6,86,0.00,,,0.00,WUHU216EASYWX,2013-05-26 06:46:00,
2013-05-26 01:51:00,72.7,68.7,30.06,SE,135,2.2,2.2,87,0.00,,,0.00,WUHU216EASYWX,2013-05-26 06:51:00,
2013-05-26 01:56:00,72.3,68.0,30.06,SE,135,2.2,2.2,86,0.00,,,0.00,WUHU216EASYWX,2013-05-26 06:56:00,
2013-05-26 02:01:00,72.5,68.2,30.06,SW,225,3.8,3.8,86,0.00,,,0.00,WUHU216EASYWX,2013-05-26 07:01:00,
2013-05-26 02:06:00,72.5,68.2,30.05,SE,135,0.7,0.7,86,0.00,,,0.00,WUHU216EASYWX,2013-05-26 07:06:00,
2013-05-26 02:11:00,72.5,68.2,30.05,South,180,3.8,3.8,86,0.00,,,0.00,WUHU216EASYWX,2013-05-26 07:11:00,
2013-05-26 02:16:00,72.5,67.8,30.06,East,90,2.2,2.2,85,0.00,,,0.00,WUHU216EASYWX,2013-05-26 07:16:00,
2013-05-26 02:21:00,72.7,68.0,30.05,SW,225,2.2,2.2,85,0.00,,,0.00,WUHU216EASYWX,2013-05-26 07:21:00,
2013-05-26 02:26:00,72.7,67.6,30.05,SW,225,2.2,2.2,84,0.00,,,0.00,WUHU216EASYWX,2013-05-26 07:26:00,
2013-05-26 02:31:00,73.4,68.4,30.06,SW,225,2.2,2.2,84,0.00,,,0.00,WUHU216EASYWX,2013-05-26 07:31:00,
2013-05-26 02:36:00,72.5,67.8,30.05,South,180,3.1,3.1,85,0.00,,,0.00,WUHU216EASYWX,2013-05-26 07:36:00,
2013-05-26 02:41:00,72.3,67.6,30.05,SE,135,1.6,1.6,85,0.00,,,0.00,WUHU216EASYWX,2013-05-26 07:41:00,
2013-05-26 02:46:00,72.1,67.8,30.04,SW,225,1.6,1.6,86,0.00,,,0.00,WUHU216EASYWX,2013-05-26 07:46:00,
2013-05-26 02:51:00,72.0,67.6,30.05,East,90,3.8,3.8,86,0.00,,,0.00,WUHU216EASYWX,2013-05-26 07:51:00,
2013-05-26 02:56:00,72.0,67.3,30.05,East,90,3.8,3.8,85,0.00,,,0.00,WUHU216EASYWX,2013-05-26 07:56:00,
2013-05-26 03:01:00,72.1,67.1,30.05,NE,45,2.2,2.2,84,0.00,,,0.00,WUHU216EASYWX,2013-05-26 08:01:00,
2013-05-26 03:06:00,72.1,67.1,30.05,East,90,3.1,3.1,84,0.00,,,0.00,WUHU216EASYWX,2013-05-26 08:06:00,
2013-05-26 03:11:00,72.0,66.9,30.05,SW,225,2.2,2.2,84,0.00,,,0.00,WUHU216EASYWX,2013-05-26 08:11:00,
2013-05-26 03:16:00,72.0,66.9,30.05,SW,225,5.4,5.4,84,0.00,,,0.00,WUHU216EASYWX,2013-05-26 08:16:00,
2013-05-26 03:21:00,71.8,67.1,30.05,South,180,3.8,3.8,85,0.00,,,0.00,WUHU216EASYWX,2013-05-26 08:21:00,
2013-05-26 03:26:00,71.8,67.1,30.05,South,180,3.8,3.8,85,0.00,,,0.00,WUHU216EASYWX,2013-05-26 08:26:00,
2013-05-26 03:31:00,71.6,66.9,30.04,SW,225,1.6,1.6,85,0.00,,,0.00,WUHU216EASYWX,2013-05-26 08:31:00,
2013-05-26 03:36:00,71.4,66.7,30.04,South,180,3.8,3.8,85,0.00,,,0.00,WUHU216EASYWX,2013-05-26 08:36:00,
2013-05-26 03:41:00,71.2,66.9,30.04,South,180,3.1,3.1,86,0.00,,,0.00,WUHU216EASYWX,2013-05-26 08:41:00,
2013-05-26 03:46:00,71.2,66.9,30.04,SW,225,2.2,2.2,86,0.00,,,0.00,WUHU216EASYWX,2013-05-26 08:46:00,
2013-05-26 03:51:00,71.1,66.7,30.04,South,180,1.6,1.6,86,0.00,,,0.00,WUHU216EASYWX,2013-05-26 08:51:00,
2013-05-26 03:56:00,71.1,66.7,30.04,South,180,1.6,1.6,86,0.00,,,0.00,WUHU216EASYWX,2013-05-26 08:56:00,
2013-05-26 04:01:00,71.1,66.7,30.04,South,180,3.8,3.8,86,0.00,,,0.00,WUHU216EASYWX,2013-05-26 09:01:00,
2013-05-26 04:06:00,70.9,66.6,30.03,SW,225,3.1,3.1,86,0.00,,,0.00,WUHU216EASYWX,2013-05-26 09:06:00,
2013-05-26 04:11:00,70.9,66.6,30.03,South,180,2.2,2.2,86,0.00,,,0.00,WUHU216EASYWX,2013-05-26 09:11:00,
2013-05-26 04:16:00,70.7,66.4,30.03,South,180,3.8,3.8,86,0.00,,,0.00,WUHU216EASYWX,2013-05-26 09:16:00,
2013-05-26 04:21:00,70.7,66.4,30.03,SW,225,4.5,4.5,86,0.00,,,0.00,WUHU216EASYWX,2013-05-26 09:21:00,
2013-05-26 04:26:00,70.7,66.4,30.03,SW,225,4.5,4.5,86,0.00,,,0.00,WUHU216EASYWX,2013-05-26 09:26:00,
2013-05-26 04:31:00,70.5,66.2,30.03,South,180,3.1,3.1,86,0.00,,,0.00,WUHU216EASYWX,2013-05-26 09:31:00,
2013-05-26 04:36:00,70.5,66.2,30.03,South,180,3.1,3.1,86,0.00,,,0.00,WUHU216EASYWX,2013-05-26 09:36:00,
2013-05-26 04:41:00,70.3,66.0,30.03,East,90,1.6,1.6,86,0.00,,,0.00,WUHU216EASYWX,2013-05-26 09:41:00,
2013-05-26 04:46:00,70.2,65.8,30.03,SW,225,3.8,3.8,86,0.00,,,0.00,WUHU216EASYWX,2013-05-26 09:46:00,
2013-05-26 04:51:00,70.3,66.0,30.03,South,180,2.2,2.2,86,0.00,,,0.00,WUHU216EASYWX,2013-05-26 09:51:00,
2013-05-26 04:56:00,70.2,65.5,30.03,SE,135,2.2,2.2,85,0.00,,,0.00,WUHU216EASYWX,2013-05-26 09:56:00,
2013-05-26 05:01:00,70.2,65.5,30.03,SE,135,1.6,1.6,85,0.00,,,0.00,WUHU216EASYWX,2013-05-26 10:01:00,
2013-05-26 05:06:00,70.2,65.5,30.03,SE,135,3.1,3.1,85,0.00,,,0.00,WUHU216EASYWX,2013-05-26 10:06:00,
2013-05-26 05:11:00,70.2,65.8,30.03,South,180,3.1,3.1,86,0.00,,,0.00,WUHU216EASYWX,2013-05-26 10:11:00,
2013-05-26 05:16:00,70.2,65.5,30.03,West,270,2.2,2.2,85,0.00,,,0.00,WUHU216EASYWX,2013-05-26 10:16:00,
2013-05-26 05:21:00,70.2,65.5,30.03,South,180,1.6,1.6,85,0.00,,,0.00,WUHU216EASYWX,2013-05-26 10:21:00,
2013-05-26 05:26:00,70.2,65.5,30.03,SW,225,2.2,2.2,85,0.00,,,0.00,WUHU216EASYWX,2013-05-26 10:26:00,
2013-05-26 05:31:00,70.2,65.5,30.03,South,180,3.1,3.1,85,0.00,,,0.00,WUHU216EASYWX,2013-05-26 10:31:00,
2013-05-26 05:36:00,70.0,65.7,30.02,South,180,2.2,2.2,86,0.00,,,0.00,WUHU216EASYWX,2013-05-26 10:36:00,
2013-05-26 05:41:00,69.8,65.5,30.03,South,180,0.7,0.7,86,0.00,,,0.00,WUHU216EASYWX,2013-05-26 10:41:00,
2013-05-26 05:46:00,69.8,65.5,30.03,South,180,4.5,4.5,86,0.00,,,0.00,WUHU216EASYWX,2013-05-26 10:46:00,
2013-05-26 05:51:00,69.6,65.3,30.02,SE,135,2.2,2.2,86,0.00,,,0.00,WUHU216EASYWX,2013-05-26 10:51:00,
2013-05-26 05:56:00,69.4,65.5,30.03,South,180,3.1,3.1,87,0.00,,,0.00,WUHU216EASYWX,2013-05-26 10:56:00,
2013-05-26 06:01:00,69.4,65.5,30.03,South,180,3.8,3.8,87,0.00,,,0.00,WUHU216EASYWX,2013-05-26 11:01:00,
2013-05-26 06:06:00,69.4,65.5,30.03,NW,315,3.1,3.1,87,0.00,,,0.00,WUHU216EASYWX,2013-05-26 11:06:00,
2013-05-26 06:11:00,69.3,65.3,30.03,South,180,1.6,1.6,87,0.00,,,0.00,WUHU216EASYWX,2013-05-26 11:11:00,
2013-05-26 06:16:00,69.3,65.3,30.03,SE,135,0.7,0.7,87,0.00,,,0.00,WUHU216EASYWX,2013-05-26 11:16:00,
2013-05-26 06:21:00,69.3,65.7,30.03,East,90,1.6,1.6,88,0.00,,,0.00,WUHU216EASYWX,2013-05-26 11:21:00,
2013-05-26 06:26:00,69.3,65.7,30.03,SE,135,1.6,1.6,88,0.00,,,0.00,WUHU216EASYWX,2013-05-26 11:26:00,
2013-05-26 06:31:00,69.1,65.5,30.03,East,90,1.6,1.6,88,0.00,,,0.00,WUHU216EASYWX,2013-05-26 11:31:00,
2013-05-26 06:36:00,69.3,65.7,30.03,South,180,1.6,1.6,88,0.00,,,0.00,WUHU216EASYWX,2013-05-26 11:36:00,
2013-05-26 06:41:00,69.3,65.7,30.03,South,180,1.6,1.6,88,0.00,,,0.00,WUHU216EASYWX,2013-05-26 11:41:00,
2013-05-26 06:46:00,69.4,65.8,30.03,East,90,0.7,0.7,88,0.00,,,0.00,WUHU216EASYWX,2013-05-26 11:46:00,
2013-05-26 06:51:00,69.4,65.8,30.03,NE,45,0.7,0.7,88,0.00,,,0.00,WUHU216EASYWX,2013-05-26 11:51:00,
2013-05-26 06:56:00,69.6,66.0,30.04,South,180,2.2,2.2,88,0.00,,,0.00,WUHU216EASYWX,2013-05-26 11:56:00,
2013-05-26 07:01:00,69.8,66.2,30.03,South,180,2.2,2.2,88,0.00,,,0.00,WUHU216EASYWX,2013-05-26 12:01:00,
2013-05-26 07:06:00,69.8,66.2,30.03,SE,135,3.8,3.8,88,0.00,,,0.00,WUHU216EASYWX,2013-05-26 12:06:00,
2013-05-26 07:11:00,70.2,66.2,30.03,SW,225,0.7,0.7,87,0.00,,,0.00,WUHU216EASYWX,2013-05-26 12:11:00,
2013-05-26 07:16:00,70.5,66.6,30.03,South,180,2.2,2.2,87,0.00,,,0.00,WUHU216EASYWX,2013-05-26 12:16:00,
2013-05-26 07:21:00,70.7,66.4,30.04,South,180,2.2,2.2,86,0.00,,,0.00,WUHU216EASYWX,2013-05-26 12:21:00,
2013-05-26 07:26:00,71.1,66.4,30.03,SW,225,3.1,3.1,85,0.00,,,0.00,WUHU216EASYWX,2013-05-26 12:26:00,
2013-05-26 07:31:00,71.2,66.6,30.03,SE,135,3.1,3.1,85,0.00,,,0.00,WUHU216EASYWX,2013-05-26 12:31:00,
2013-05-26 07:36:00,71.2,66.6,30.03,South,180,4.5,4.5,85,0.00,,,0.00,WUHU216EASYWX,2013-05-26 12:36:00,
2013-05-26 07:41:00,71.4,66.7,30.03,NE,45,2.2,2.2,85,0.00,,,0.00,WUHU216EASYWX,2013-05-26 12:41:00,
2013-05-26 07:46:00,73.4,68.7,30.04,NW,315,1.6,1.6,85,0.00,,,0.00,WUHU216EASYWX,2013-05-26 12:46:00,
2013-05-26 07:51:00,72.0,66.9,30.03,SW,225,5.4,5.4,84,0.00,,,0.00,WUHU216EASYWX,2013-05-26 12:51:00,
2013-05-26 07:56:00,72.3,67.3,30.04,South,180,3.1,3.1,84,0.00,,,0.00,WUHU216EASYWX,2013-05-26 12:56:00,
2013-05-26 08:01:00,72.7,67.3,30.04,NE,45,2.2,2.2,83,0.00,,,0.00,WUHU216EASYWX,2013-05-26 13:01:00,
2013-05-26 08:06:00,72.9,67.5,30.04,South,180,3.1,3.1,83,0.00,,,0.00,WUHU216EASYWX,2013-05-26 13:06:00,
2013-05-26 08:11:00,72.9,67.5,30.04,SW,225,4.5,4.5,83,0.00,,,0.00,WUHU216EASYWX,2013-05-26 13:11:00,
2013-05-26 08:16:00,73.4,68.0,30.04,South,180,4.5,4.5,83,0.00,,,0.00,WUHU216EASYWX,2013-05-26 13:16:00,
2013-05-26 08:21:00,73.6,67.8,30.04,SE,135,3.1,3.1,82,0.00,,,0.00,WUHU216EASYWX,2013-05-26 13:21:00,
2013-05-26 08:26:00,73.4,67.6,30.04,West,270,4.5,4.5,82,0.00,,,0.00,WUHU216EASYWX,2013-05-26 13:26:00,
2013-05-26 08:31:00,73.8,68.0,30.04,SE,135,5.4,5.4,82,0.00,,,0.00,WUHU216EASYWX,2013-05-26 13:31:00,
2013-05-26 08:36:00,74.1,68.4,30.04,SE,135,5.4,5.4,82,0.00,,,0.00,WUHU216EASYWX,2013-05-26 13:36:00,
2013-05-26 08:41:00,74.7,68.5,30.04,South,180,3.8,3.8,81,0.00,,,0.00,WUHU216EASYWX,2013-05-26 13:41:00,
2013-05-26 08:46:00,74.5,68.4,30.05,South,180,4.5,4.5,81,0.00,,,0.00,WUHU216EASYWX,2013-05-26 13:46:00,
2013-05-26 08:51:00,74.7,68.9,30.05,South,180,3.8,3.8,82,0.00,,,0.00,WUHU216EASYWX,2013-05-26 13:51:00,
2013-05-26 08:56:00,75.0,68.5,30.05,SW,225,6.9,6.9,80,0.00,,,0.00,WUHU216EASYWX,2013-05-26 13:56:00,
2013-05-26 09:01:00,75.0,68.9,30.05,South,180,5.4,5.4,81,0.00,,,0.00,WUHU216EASYWX,2013-05-26 14:01:00,
2013-05-26 09:06:00,74.8,68.7,30.05,South,180,6.9,6.9,81,0.00,,,0.00,WUHU216EASYWX,2013-05-26 14:06:00,
2013-05-26 09:11:00,74.3,68.5,30.05,SW,225,5.4,5.4,82,0.00,,,0.00,WUHU216EASYWX,2013-05-26 14:11:00,
2013-05-26 09:16:00,74.3,68.5,30.05,SW,225,4.5,4.5,82,0.00,,,0.00,WUHU216EASYWX,2013-05-26 14:16:00,
2013-05-26 09:21:00,74.7,68.9,30.05,SW,225,5.4,5.4,82,0.00,,,0.00,WUHU216EASYWX,2013-05-26 14:21:00,
2013-05-26 09:26:00,75.4,69.3,30.05,South,180,6.0,6.0,81,0.00,,,0.00,WUHU216EASYWX,2013-05-26 14:26:00,
2013-05-26 09:31:00,75.9,68.9,30.05,South,180,7.6,7.6,79,0.00,,,0.00,WUHU216EASYWX,2013-05-26 14:31:00,
2013-05-26 09:36:00,76.1,69.6,30.06,SW,225,3.1,3.1,80,0.00,,,0.00,WUHU216EASYWX,2013-05-26 14:36:00,
2013-05-26 09:41:00,75.7,68.9,30.06,SW,225,8.3,8.3,79,0.00,,,0.00,WUHU216EASYWX,2013-05-26 14:41:00,
2013-05-26 09:46:00,75.9,69.4,30.05,SW,225,2.2,2.2,80,0.00,,,0.00,WUHU216EASYWX,2013-05-26 14:46:00,
2013-05-26 09:51:00,76.3,69.3,30.06,SW,225,6.0,6.0,79,0.00,,,0.00,WUHU216EASYWX,2013-05-26 14:51:00,
2013-05-26 12:34:00,81.1,69.3,30.03,SW,225,6.9,6.9,67,0.00,,,0.00,WUHU216EASYWX,2013-05-26 17:34:00,
2013-05-26 12:39:00,81.0,69.1,30.03,South,180,5.4,5.4,67,0.00,,,0.00,WUHU216EASYWX,2013-05-26 17:39:00,
2013-05-26 12:44:00,81.5,69.6,30.03,NW,315,6.9,6.9,67,0.00,,,0.00,WUHU216EASYWX,2013-05-26 17:44:00,
2013-05-26 12:49:00,81.5,69.1,30.03,SW,225,9.2,9.2,66,0.00,,,0.00,WUHU216EASYWX,2013-05-26 17:49:00,
2013-05-26 12:54:00,81.1,68.7,30.03,SW,225,10.8,10.8,66,0.00,,,0.00,WUHU216EASYWX,2013-05-26 17:54:00,
2013-05-26 12:59:00,81.1,69.6,30.03,South,180,3.1,3.1,68,0.00,,,0.00,WUHU216EASYWX,2013-05-26 17:59:00,
2013-05-26 13:04:00,81.1,69.3,30.03,West,270,6.0,6.0,67,0.00,,,0.00,WUHU216EASYWX,2013-05-26 18:04:00,
2013-05-26 13:09:00,81.0,69.4,30.02,South,180,3.8,3.8,68,0.00,,,0.00,WUHU216EASYWX,2013-05-26 18:09:00,
2013-05-26 13:14:00,81.0,69.1,30.02,South,180,6.0,6.0,67,0.00,,,0.00,WUHU216EASYWX,2013-05-26 18:14:00,
2013-05-26 13:19:00,81.1,69.3,30.02,SE,135,5.4,5.4,67,0.00,,,0.00,WUHU216EASYWX,2013-05-26 18:19:00,
2013-05-26 13:24:00,81.9,69.4,30.02,SE,135,5.4,5.4,66,0.00,,,0.00,WUHU216EASYWX,2013-05-26 18:24:00,
2013-05-26 13:29:00,82.9,69.6,30.01,SE,135,6.0,6.0,64,0.00,,,0.00,WUHU216EASYWX,2013-05-26 18:29:00,
2013-05-26 13:34:00,83.1,69.3,30.01,South,180,7.6,7.6,63,0.00,,,0.00,WUHU216EASYWX,2013-05-26 18:34:00,
2013-05-26 13:39:00,83.3,69.4,30.01,SW,225,5.4,5.4,63,0.00,,,0.00,WUHU216EASYWX,2013-05-26 18:39:00,
2013-05-26 13:44:00,83.7,69.3,30.01,South,180,7.6,7.6,62,0.00,,,0.00,WUHU216EASYWX,2013-05-26 18:44:00,
2013-05-26 13:49:00,82.8,68.5,30.00,SW,225,9.9,9.9,62,0.00,,,0.00,WUHU216EASYWX,2013-05-26 18:49:00,
2013-05-26 13:54:00,82.9,69.1,30.00,SE,135,6.9,6.9,63,0.00,,,0.00,WUHU216EASYWX,2013-05-26 18:54:00,
2013-05-26 13:59:00,82.8,68.9,30.00,SW,225,7.6,7.6,63,0.00,,,0.00,WUHU216EASYWX,2013-05-26 18:59:00,
2013-05-26 14:04:00,82.8,68.9,29.99,South,180,6.9,6.9,63,0.00,,,0.00,WUHU216EASYWX,2013-05-26 19:04:00,
2013-05-26 14:09:00,82.9,69.6,29.99,SW,225,6.9,6.9,64,0.00,,,0.00,WUHU216EASYWX,2013-05-26 19:09:00,
2013-05-26 14:14:00,83.7,69.8,29.99,SE,135,11.4,11.4,63,0.00,,,0.00,WUHU216EASYWX,2013-05-26 19:14:00,
2013-05-26 14:19:00,84.4,69.4,29.99,South,180,9.2,9.2,61,0.00,,,0.00,WUHU216EASYWX,2013-05-26 19:19:00,
2013-05-26 14:24:00,84.4,70.0,29.98,SW,225,7.6,7.6,62,0.00,,,0.00,WUHU216EASYWX,2013-05-26 19:24:00,
2013-05-26 14:29:00,83.8,69.4,29.98,SE,135,6.9,6.9,62,0.00,,,0.00,WUHU216EASYWX,2013-05-26 19:29:00,
2013-05-26 14:34:00,84.7,69.8,29.98,West,270,3.1,3.1,61,0.00,,,0.00,WUHU216EASYWX,2013-05-26 19:34:00,
2013-05-26 14:39:00,84.4,69.4,29.98,East,90,6.9,6.9,61,0.00,,,0.00,WUHU216EASYWX,2013-05-26 19:39:00,
2013-05-26 14:44:00,85.3,69.8,29.98,SE,135,4.5,4.5,60,0.00,,,0.00,WUHU216EASYWX,2013-05-26 19:44:00,
2013-05-26 14:49:00,84.2,68.9,29.98,SW,225,7.6,7.6,60,0.00,,,0.00,WUHU216EASYWX,2013-05-26 19:49:00,
2013-05-26 14:54:00,84.0,69.3,29.98,SW,225,6.0,6.0,61,0.00,,,0.00,WUHU216EASYWX,2013-05-26 19:54:00,
2013-05-26 14:59:00,85.5,70.0,29.98,SW,225,3.8,3.8,60,0.00,,,0.00,WUHU216EASYWX,2013-05-26 19:59:00,
2013-05-26 15:04:00,85.8,70.3,29.98,SW,225,3.8,3.8,60,0.00,,,0.00,WUHU216EASYWX,2013-05-26 20:04:00,
2013-05-26 15:09:00,85.8,70.0,29.97,East,90,4.5,4.5,59,0.00,,,0.00,WUHU216EASYWX,2013-05-26 20:09:00,
2013-05-26 15:14:00,85.5,68.5,29.98,South,180,10.8,10.8,57,0.00,,,0.00,WUHU216EASYWX,2013-05-26 20:14:00,
2013-05-26 15:19:00,85.3,69.4,29.98,NW,315,5.4,5.4,59,0.00,,,0.00,WUHU216EASYWX,2013-05-26 20:19:00,
2013-05-26 15:24:00,84.7,68.9,29.98,NW,315,8.3,8.3,59,0.00,,,0.00,WUHU216EASYWX,2013-05-26 20:24:00,
2013-05-26 15:29:00,84.6,69.3,29.97,NW,315,9.2,9.2,60,0.00,,,0.00,WUHU216EASYWX,2013-05-26 20:29:00,
2013-05-26 15:34:00,85.1,69.3,29.97,SE,135,7.6,7.6,59,0.00,,,0.00,WUHU216EASYWX,2013-05-26 20:34:00,
2013-05-26 15:48:00,84.4,68.5,29.97,SW,225,11.4,11.4,59,0.00,,,0.00,WUHU216EASYWX,2013-05-26 20:48:00,
2013-05-26 15:52:00,84.6,69.3,29.96,South,180,8.3,8.3,60,0.00,,,0.00,WUHU216EASYWX,2013-05-26 20:52:00,
2013-05-26 15:57:00,84.6,69.3,29.96,SW,225,5.4,5.4,60,0.00,,,0.00,WUHU216EASYWX,2013-05-26 20:57:00,
2013-05-26 16:02:00,83.8,68.5,29.97,SW,225,6.0,6.0,60,0.00,,,0.00,WUHU216EASYWX,2013-05-26 21:02:00,
2013-05-26 16:07:00,83.7,68.4,29.97,South,180,8.3,8.3,60,0.00,,,0.00,WUHU216EASYWX,2013-05-26 21:07:00,
2013-05-26 16:12:00,84.2,68.4,29.96,SW,225,9.2,9.2,59,0.00,,,0.00,WUHU216EASYWX,2013-05-26 21:12:00,
2013-05-26 16:17:00,84.2,68.4,29.96,South,180,5.4,5.4,59,0.00,,,0.00,WUHU216EASYWX,2013-05-26 21:17:00,
2013-05-26 16:22:00,84.2,68.9,29.96,South,180,3.8,3.8,60,0.00,,,0.00,WUHU216EASYWX,2013-05-26 21:22:00,
2013-05-26 16:27:00,84.6,68.7,29.96,South,180,6.0,6.0,59,0.00,,,0.00,WUHU216EASYWX,2013-05-26 21:27:00,
2013-05-26 16:32:00,85.3,68.9,29.96,South,180,3.8,3.8,58,0.00,,,0.00,WUHU216EASYWX,2013-05-26 21:32:00,
2013-05-26 16:37:00,85.6,68.2,29.96,South,180,6.9,6.9,56,0.00,,,0.00,WUHU216EASYWX,2013-05-26 21:37:00,
2013-05-26 16:42:00,84.9,67.5,29.96,SW,225,9.9,9.9,56,0.00,,,0.00,WUHU216EASYWX,2013-05-26 21:42:00,
2013-05-26 16:47:00,84.4,68.0,29.96,South,180,6.9,6.9,58,0.00,,,0.00,WUHU216EASYWX,2013-05-26 21:47:00,
2013-05-26 16:52:00,84.6,68.2,29.95,South,180,6.9,6.9,58,0.00,,,0.00,WUHU216EASYWX,2013-05-26 21:52:00,
2013-05-26 16:57:00,84.2,68.9,29.96,SE,135,3.1,3.1,60,0.00,,,0.00,WUHU216EASYWX,2013-05-26 21:57:00,
2013-05-26 17:02:00,84.9,69.1,29.96,SE,135,5.4,5.4,59,0.00,,,0.00,WUHU216EASYWX,2013-05-26 22:02:00,
2013-05-26 17:07:00,84.9,69.6,29.96,NE,45,5.4,5.4,60,0.00,,,0.00,WUHU216EASYWX,2013-05-26 22:07:00,
2013-05-26 17:12:00,84.2,69.4,29.96,NW,315,4.5,4.5,61,0.00,,,0.00,WUHU216EASYWX,2013-05-26 22:12:00,
2013-05-26 17:17:00,83.7,68.4,29.96,SW,225,4.5,4.5,60,0.00,,,0.00,WUHU216EASYWX,2013-05-26 22:17:00,
2013-05-26 17:22:00,83.8,68.5,29.95,South,180,5.4,5.4,60,0.00,,,0.00,WUHU216EASYWX,2013-05-26 22:22:00,
2013-05-26 17:27:00,84.2,68.4,29.95,SE,135,6.0,6.0,59,0.00,,,0.00,WUHU216EASYWX,2013-05-26 22:27:00,
2013-05-26 17:32:00,84.2,68.9,29.94,South,180,4.5,4.5,60,0.00,,,0.00,WUHU216EASYWX,2013-05-26 22:32:00,
2013-05-26 17:37:00,84.2,67.8,29.94,West,270,6.9,6.9,58,0.00,,,0.00,WUHU216EASYWX,2013-05-26 22:37:00,
2013-05-26 17:42:00,84.0,67.6,29.94,SE,135,9.2,9.2,58,0.00,,,0.00,WUHU216EASYWX,2013-05-26 22:42:00,
2013-05-26 17:47:00,83.7,67.8,29.93,East,90,3.8,3.8,59,0.00,,,0.00,WUHU216EASYWX,2013-05-26 22:47:00,
2013-05-26 17:52:00,83.7,67.8,29.93,South,180,6.0,6.0,59,0.00,,,0.00,WUHU216EASYWX,2013-05-26 22:52:00,
2013-05-26 17:57:00,83.7,67.8,29.93,South,180,4.5,4.5,59,0.00,,,0.00,WUHU216EASYWX,2013-05-26 22:57:00,
2013-05-26 18:02:00,83.7,67.5,29.93,SW,225,4.5,4.5,58,0.00,,,0.00,WUHU216EASYWX,2013-05-26 23:02:00,
2013-05-26 18:07:00,83.7,67.5,29.93,South,180,6.0,6.0,58,0.00,,,0.00,WUHU216EASYWX,2013-05-26 23:07:00,
2013-05-26 18:12:00,83.1,67.3,29.93,SE,135,10.8,10.8,59,0.00,,,0.00,WUHU216EASYWX,2013-05-26 23:12:00,
2013-05-26 18:17:00,82.9,67.3,29.93,SW,225,8.3,8.3,59,0.00,,,0.00,WUHU216EASYWX,2013-05-26 23:17:00,
2013-05-26 18:22:00,82.8,67.5,29.93,South,180,7.6,7.6,60,0.00,,,0.00,WUHU216EASYWX,2013-05-26 23:22:00,
2013-05-26 18:27:00,82.8,67.5,29.92,South,180,6.9,6.9,60,0.00,,,0.00,WUHU216EASYWX,2013-05-26 23:27:00,
2013-05-26 18:32:00,82.6,67.3,29.92,South,180,5.4,5.4,60,0.00,,,0.00,WUHU216EASYWX,2013-05-26 23:32:00,
2013-05-26 18:37:00,82.6,67.3,29.93,NW,315,6.0,6.0,60,0.00,,,0.00,WUHU216EASYWX,2013-05-26 23:37:00,
2013-05-26 18:42:00,82.8,67.1,29.93,South,180,6.0,6.0,59,0.00,,,0.00,WUHU216EASYWX,2013-05-26 23:42:00,
2013-05-26 18:47:00,82.2,66.9,29.93,North,0,6.0,6.0,60,0.00,,,0.00,WUHU216EASYWX,2013-05-26 23:47:00,
2013-05-26 18:52:00,82.0,66.4,29.93,SE,135,5.4,5.4,59,0.00,,,0.00,WUHU216EASYWX,2013-05-26 23:52:00,
2013-05-26 18:57:00,82.0,66.4,29.93,SE,135,6.0,6.0,59,0.00,,,0.00,WUHU216EASYWX,2013-05-26 23:57:00,
2013-05-26 19:02:00,81.7,66.0,29.93,South,180,9.2,9.2,59,0.00,,,0.00,WUHU216EASYWX,2013-05-27 00:02:00,
2013-05-26 19:07:00,81.7,66.6,29.93,South,180,7.6,7.6,60,0.00,,,0.00,WUHU216EASYWX,2013-05-27 00:07:00,
2013-05-26 19:12:00,81.5,66.4,29.93,South,180,2.2,2.2,60,0.00,,,0.00,WUHU216EASYWX,2013-05-27 00:12:00,
2013-05-26 19:17:00,81.7,66.9,29.93,SE,135,3.1,3.1,61,0.00,,,0.00,WUHU216EASYWX,2013-05-27 00:17:00,
2013-05-26 19:22:00,81.9,67.1,29.93,South,180,6.9,6.9,61,0.00,,,0.00,WUHU216EASYWX,2013-05-27 00:22:00,
2013-05-26 19:27:00,81.7,66.9,29.93,East,90,3.1,3.1,61,0.00,,,0.00,WUHU216EASYWX,2013-05-27 00:27:00,
2013-05-26 19:32:00,81.5,66.7,29.93,SW,225,4.5,4.5,61,0.00,,,0.00,WUHU216EASYWX,2013-05-27 00:32:00,
2013-05-26 19:37:00,81.3,66.6,29.93,South,180,2.2,2.2,61,0.00,,,0.00,WUHU216EASYWX,2013-05-27 00:37:00,
2013-05-26 19:42:00,81.5,66.7,29.93,South,180,3.1,3.1,61,0.00,,,0.00,WUHU216EASYWX,2013-05-27 00:42:00,
2013-05-26 19:47:00,81.1,66.6,29.93,SE,135,3.8,3.8,61,0.00,,,0.00,WUHU216EASYWX,2013-05-27 00:47:00,
2013-05-26 19:52:00,80.6,66.0,29.93,East,90,3.1,3.1,61,0.00,,,0.00,WUHU216EASYWX,2013-05-27 00:52:00,
2013-05-26 19:57:00,80.1,65.8,29.93,South,180,3.1,3.1,62,0.00,,,0.00,WUHU216EASYWX,2013-05-27 00:57:00,
2013-05-26 20:02:00,79.9,65.8,29.93,SE,135,4.5,4.5,62,0.00,,,0.00,WUHU216EASYWX,2013-05-27 01:02:00,
2013-05-26 20:07:00,79.7,65.7,29.93,SE,135,4.5,4.5,62,0.00,,,0.00,WUHU216EASYWX,2013-05-27 01:07:00,
2013-05-26 20:13:00,79.3,64.8,29.93,East,90,5.4,5.4,61,0.00,,,0.00,WUHU216EASYWX,2013-05-27 01:13:00,
2013-05-26 20:18:00,79.2,65.1,29.93,SE,135,2.2,2.2,62,0.00,,,0.00,WUHU216EASYWX,2013-05-27 01:18:00,
2013-05-26 20:23:00,79.0,64.9,29.93,SE,135,3.1,3.1,62,0.00,,,0.00,WUHU216EASYWX,2013-05-27 01:23:00,
2013-05-26 20:28:00,78.8,65.1,29.93,SE,135,3.8,3.8,63,0.00,,,0.00,WUHU216EASYWX,2013-05-27 01:28:00,
2013-05-26 20:33:00,78.6,64.9,29.94,South,180,9.9,9.9,63,0.00,,,0.00,WUHU216EASYWX,2013-05-27 01:33:00,
2013-05-26 20:38:00,78.6,64.9,29.94,South,180,9.9,15.9,63,0.00,,,0.00,WUHU216EASYWX,2013-05-27 01:38:00,